Погода в Ашхабаде

Погода в Ашхабаде : погода сейчас, прогноз погоды и архив. Всё, что Вы хотите узнать о погоде в Ашхабаде!

Поиск расширенной информации на нашем сайте:

Другие новости

Новости СМИ2

Главная страница сайта

Новости сайта

03.07.2017

Напоминаем, что на нашем специализированном сайте Метеоцентр.Азия вы можете получить высокодетализированные автоматические прогнозы погоды по пунктам России, СНГ и мира в авиационном формате (включающие направление и скорость ветра, видимость, явления погоды, количество и форму облачности, нижнюю и верхнюю границу облачности).

Рекомендуем: вред курения

Погода в Ашхабаде - сегодня

Время (UTC), дата Ветер
(°,м/с) 
Видим.   Явления Облачность Т
(°С)
Тd
(°С)
f(%) Тe
(°С)
Pmin
(гПа)
dP
(гПа)
Po
(мм)
O2
(г/м3)
Тmin Tmax R s Состояние
почвы
21 19.11.17 110 (В) 10 км    ясно 
+7.2 +0.9 64 +6  1020.8  -1.6  746  293           
00 20.11.17 110 (В) 10 км    ясно 
+4.9 +0.2 72 +5  1020.2  -0.6  746  295           
03 20.11.17 100 (В) 10 км    1/0 верхняя 
[Ci fib]
+3.8 -1.1 70 +3  1020.2  -0.2  750  298           
06 20.11.17 100 (В) 10 км    6/0 верхняя 
[Ci fib]
+9.7 +0.6 53 +9  1019.8  0.1  746  290  +3.2         
09 20.11.17 110 (В) 10 км    8/0 средняя, верхняя 
[Ac trans|Ci fib]
+17 +1.5 35 +17  1016.9  -2.2  744  282           
12 20.11.17 100 (В) 10 км    8/0 верхняя 
[Ci fib]
+18.4 +1.3 32 +19  1015.9  -0.8  744  280           
15 20.11.17 110 (В) 10 км    6/0 верхняя 
[Ci fib]
+13.7 +2.1 45 +14  1017.1  0.8  744  285    +19.2       
18 20.11.17 160 (Ю) 10 км    6/0 верхняя 
[Ci fib]
+8.2 +1.1 61 +8  1017  -0.7  744  291    +19.2       
21 20.11.17 150 (ЮВ) 10 км    5/0 средняя, верхняя 
[Ac trans|Ci fib]
+8.1 -0.2 56 +8  1016.1  -0.8  743  291           
00 21.11.17 190 (Ю) 10 км    5/0 верхняя 
[Ci fib]
+6.2 -2 56 +7  1015.8  -0.5  743  293           
03 21.11.17 180 (Ю) 10 км    1/0 верхняя 
[Ci fib]
+8.5 -6 35 +10  1015  -0.6  751  294           
06 21.11.17 130 (ЮВ) 10 км    6/0 средняя, верхняя 
[Ac trans|Ci fib]
+20.2 +0.2 26 +20  1013.1  -0.2  742  278  +6         
09 21.11.17 110 (В) 10 км    10/0 верхняя 
[Ci fib]
+24.1 -2.5 17 +24  1011.1  -2.2  740  274           
12 21.11.17 100 (В) 10 км    10/3 1500 м средняя, верхняя 
[Sc|Ac trans|Ci fib]
+21.3 +0.6 25 +21  1010.6  -0.8  740  276           
15 21.11.17 210 (ЮЗ) 10 км    4/0 верхняя 
[Ci fib]
+16.2 +0.2 34 +18  1010.7  -0.3  740  281    +24.8       
18 21.11.17 240 (ЮЗ) 10 км    9/0 средняя 
[Ac trans]
+12.4 -0.7 40 +14  1009.1  -1.9  738  285    +24.8       
21 21.11.17 180 (Ю) 10 км    6/0 средняя, верхняя 
[Ac trans|Ci fib]
+10.9 -0.5 45 +11  1007.4  -1.7  737  286           
00 22.11.17 тихо ()   10 км    8/0 средняя, верхняя 
[Ac trans|Ci fib]
+13.1 -2.5 34 +13  1005.7  -1.5  736  283           
03 22.11.17 180 (Ю) 10 км    8/0 средняя, верхняя 
[Ac trans|Ci fib]
+15.1 -1.9 31 +16  1005.1  -0.4  735  281           
06 22.11.17 280 (З) 10 км    10/6 1500 м кучево-дожд., средняя 
[Cb cap|Ac und]
+19.2 -2.7 23 +21  1005  0.2  736  277  +10.2         
09 22.11.17 170 (Ю) 10 км    10/8 1500 м кучево-дожд., средняя 
[Cb cap|Ac trans]
+19.6 +0.6 28 +21  1004.7  -0.3  735  276           
12 22.11.17 270 (З) 10 км    10/5 1500 м кучево-дожд., средняя, верхняя 
[Cb cap|Ac und|Ci fib]
+20 -1.7 23 +20  1003.8  -0.6  735  276           
15 22.11.17 240 (ЮЗ) 10 км    5/1 1500 м средняя, верхняя 
[Sc|Ac trans|Ci fib]
+17.2 +1.5 35 +18  1005.7  1.7  736  279    +22.5       
18 22.11.17 240 (ЮЗ) 10 км    ясно 
+14.4 -0.9 35 +16  1006.8  0.7  737  282    +22.5       
21 22.11.17 180 (Ю) 10 км    ясно 
+14.3 +0.6 39 +16  1007.1  0.3  737  282           
Время (UTC), дата Ветер
(°,м/с) 
Видим.   Явления Облачность Т
(°С)
Тd
(°С)
f(%) Тe
(°С)
Pmin
(гПа)
dP
(гПа)
Po
(мм)
O2
(г/м3)
Тmin Tmax R s Состояние
почвы

Для получения пояснительной информации подведите курсор к названию столбца.

ПОГОДА в Ашхабаде - архив

Всё, что Вы хотите узнать о погоде в Ашхабаде - удобно и подробно!

Выберите нужную дату (начиная с 1 января 2015* года) и нажмите кнопку "Найти".
Будут отображены архивные сводки погоды по пункту Ашхабад, начиная с указанной даты.


Отображать данные в формате CSV (для использования в таблицах Excel)


Внимание! Наш архив погоды предназначен исключительно для личного некоммерческого использования в познавательных целях. Если Вам необходимы официальные справки о состоянии погоды (для производственных, юридических, коммерческих и т.п. целей), обращайтесь в органы Росгидромета.

*Примечание: данная дата относится к архиву по метеостанциям СССР (Россия, СНГ, Балтия).
Архив по метеостанциям Зарубежной Европы и Азии (кроме Китая) хранится 10 дней, по другим регионам земного шара (Китай, Африка, Америка, Австралия, Океания) - 1 день.

Ашхабад - район местоположения метеостанции


Название, широта, долгота, высота метеостанции:
Ашхабад (город) 38°ш. 58.3°д. 208 м над ур. моря [Туркменистан]

Дополнительная информация

В oтличие oт бoльшинства пoгoдных сайтoв мы публикуем пoдрoбную метеoинфoрмацию в детальнoм прoфессиoнальнoм фoрмате.

Характеристики температуры и влажнoсти вoздуха измеряются на высoте 2 м в тени вдали oт зданий и деревьев.
Скoрoсть ветра измеряется на высoте 10 м (на урoвне рoста челoвека скoрoсть ветра ниже в 1.5-2 раза). Если метеoстанция нахoдится в гoрoде или в лесу, тo скoрoсть ветра занижена на 2-4 м/с пo сравнению с oткрытым местoм. Скoрoсть ветра над акватoриями крупных рек и oзёр, а также на вершинах хoлмoв на 2-5 м/с выше, чем в oбычных услoвиях.
Атмoсфернoе давление в разных тoчках местнoсти мoжет значительнo oтличаться oт давления на метеoстанции, в зависимoсти oт услoвий рельефа (при пoдъёме на 10 м давление пoнижается примернo на 1 мм рт.ст.).